sat.trackr.live / text

‹ back to catalog

FLAMINGO-1

NORAD 67391 · 2026-004AE

PAYLOAD ACTIVE UNKNOWN

§ Identity

Operator
Country
GER
Launch date
2026-01-11
Launch site
AFWTR
Launch vehicle
Mass (kg)
RCS (m²)

External: N2YO · Heavens-Above · Gunter

§ Orbital elements

Epoch: 2026-09-20T22:45:53.715168Z

Period
94.87 min
Inclination
97.4619°
Eccentricity
0.0005913
Mean motion
15.17931017 rev/d
Perigee alt
508.0 km
Apogee alt
516.2 km
Semi-major
6,890.2 km
B*
6.3825e-5
RAAN
261.4557°
Arg perigee
11.8480°
Mean anomaly
348.2892°
Rev number
3,827

§ Raw data

FLAMINGO-11 67391U 26004AE  26263.94853837  .00001228  00000+0  63825-4 0  99942 67391  97.4619 261.4557 0005913  11.8480 348.2892 15.17931017 38275

JSON: /api/v1/satellites/67391 · /tle

For live sub-satellite position, see the globe view (requires WebGL).

§ Visibility from observer

Set your observer location to see the next 7 days of passes ≥ 10°. The values pass through the URL so the page stays shareable.

No JS? Fill the form by hand. The geolocation button needs JavaScript.

§ Radio — SatNOGS DB

ModeDescriptionDownlinkUplink
FM Mode S - Transmitter 2.240 GHz
GMSK UHF 9k6 Telemetry 401.050 MHz

2 transmitters · refreshed weekly from db.satnogs.org